Hourly Weather Barretos

Today, 24 November, Tuesday

Time Temperature Precipitation Wind Pressure Humidity
00:00 +25°C° 0 mm 3 mps 714 mmHg 66%
01:00 +25°C° 0 mm 3 mps 714 mmHg 67%
02:00 +25°C° 0 mm 3 mps 714 mmHg 68%
03:00 +24°C° 0 mm 3 mps 714 mmHg 68%
04:00 +24°C° 0 mm 3 mps 714 mmHg 71%
05:00 +22°C° 0 mm 3 mps 715 mmHg 73%
06:00 +22°C° 0 mm 3 mps 715 mmHg 76%
07:00 +25°C° 0 mm 3 mps 716 mmHg 70%
08:00 +27°C° 0 mm 3 mps 716 mmHg 64%
09:00 +29°C° 0 mm 4 mps 717 mmHg 58%
10:00 +30°C° 0 mm 3 mps 717 mmHg 53%
11:00 +31°C° 0 mm 3 mps 717 mmHg 48%
12:00 +34°C° 0 mm 2 mps 717 mmHg 42%
13:00 +34°C° 0 mm 2 mps 716 mmHg 44%
14:00 +32°C° 0 mm 2 mps 715 mmHg 45%
15:00 +32°C° 0 mm 2 mps 715 mmHg 47%
16:00 +30°C° 0.6 mm 2 mps 714 mmHg 54%
17:00 +29°C° 0.6 mm 2 mps 714 mmHg 62%
18:00 +27°C° 0.6 mm 2 mps 714 mmHg 69%
19:00 +26°C° 0.1 mm 2 mps 714 mmHg 70%
20:00 +25°C° 0.1 mm 2 mps 714 mmHg 72%
21:00 +25°C° 0.1 mm 3 mps 715 mmHg 73%
22:00 +24°C° 0 mm 3 mps 715 mmHg 73%
23:00 +24°C° 0 mm 3 mps 715 mmHg 74%

Tomorrow, 25 November, Wednesday

Time Temperature Precipitation Wind Pressure Humidity
00:00 +23°C° 0 mm 2 mps 714 mmHg 74%
01:00 +23°C° 0 mm 2 mps 714 mmHg 76%
02:00 +21°C° 0 mm 2 mps 714 mmHg 78%
03:00 +21°C° 0 mm 2 mps 713 mmHg 80%
04:00 +21°C° 0 mm 2 mps 714 mmHg 81%
05:00 +21°C° 0 mm 2 mps 714 mmHg 82%
06:00 +21°C° 0 mm 2 mps 714 mmHg 83%
07:00 +24°C° 0 mm 3 mps 715 mmHg 75%
08:00 +26°C° 0 mm 4 mps 716 mmHg 66%
09:00 +28°C° 0 mm 4 mps 716 mmHg 58%
10:00 +30°C° 0 mm 4 mps 716 mmHg 53%
11:00 +33°C° 0 mm 4 mps 716 mmHg 48%
12:00 +34°C° 0 mm 4 mps 716 mmHg 42%
13:00 +34°C° 0 mm 3 mps 715 mmHg 43%
14:00 +34°C° 0 mm 3 mps 715 mmHg 43%
15:00 +34°C° 0 mm 2 mps 714 mmHg 43%
16:00 +31°C° 0.4 mm 2 mps 713 mmHg 52%
17:00 +29°C° 0.4 mm 2 mps 713 mmHg 61%
18:00 +27°C° 0.4 mm 2 mps 713 mmHg 69%
19:00 +26°C° 0.4 mm 2 mps 713 mmHg 72%
20:00 +25°C° 0.4 mm 2 mps 713 mmHg 76%
21:00 +25°C° 0.4 mm 2 mps 714 mmHg 79%
22:00 +24°C° 0 mm 2 mps 714 mmHg 80%
23:00 +24°C° 0 mm 2 mps 714 mmHg 81%

Day after tomorrow, 26 November, Thursday

Time Temperature Precipitation Wind Pressure Humidity
00:00 +23°C° 0 mm 2 mps 714 mmHg 83%
01:00 +23°C° 0 mm 2 mps 713 mmHg 84%
02:00 +21°C° 0 mm 2 mps 713 mmHg 85%
03:00 +21°C° 0 mm 3 mps 712 mmHg 86%
04:00 +21°C° 0 mm 3 mps 713 mmHg 86%
05:00 +21°C° 0 mm 3 mps 713 mmHg 85%
06:00 +21°C° 0 mm 3 mps 713 mmHg 84%
07:00 +24°C° 0 mm 3 mps 714 mmHg 77%
08:00 +26°C° 0 mm 4 mps 715 mmHg 69%
09:00 +28°C° 0 mm 4 mps 715 mmHg 61%
10:00 +30°C° 0 mm 4 mps 715 mmHg 56%
11:00 +31°C° 0 mm 3 mps 715 mmHg 51%
12:00 +33°C° 0 mm 3 mps 715 mmHg 46%
13:00 +32°C° 0 mm 2 mps 714 mmHg 46%
14:00 +32°C° 0 mm 2 mps 714 mmHg 47%
15:00 +32°C° 0 mm 2 mps 713 mmHg 48%
16:00 +31°C° 0.2 mm 2 mps 713 mmHg 55%
17:00 +29°C° 0.2 mm 2 mps 712 mmHg 61%
18:00 +28°C° 0.2 mm 3 mps 712 mmHg 68%
19:00 +27°C° 0.6 mm 3 mps 712 mmHg 71%
20:00 +25°C° 0.6 mm 3 mps 713 mmHg 75%
21:00 +24°C° 0.6 mm 3 mps 713 mmHg 79%
22:00 +24°C° 0.1 mm 3 mps 713 mmHg 80%
23:00 +24°C° 0.1 mm 2 mps 713 mmHg 81%

27 November, Friday

Time Temperature Precipitation Wind Pressure Humidity
00:00 +23°C° 0.1 mm 2 mps 713 mmHg 82%
01:00 +23°C° 0 mm 2 mps 713 mmHg 84%
02:00 +21°C° 0 mm 2 mps 712 mmHg 85%
03:00 +21°C° 0 mm 2 mps 712 mmHg 86%
04:00 +21°C° 0 mm 2 mps 712 mmHg 86%
05:00 +21°C° 0 mm 2 mps 713 mmHg 86%
06:00 +21°C° 0 mm 2 mps 713 mmHg 86%
07:00 +24°C° 0 mm 3 mps 714 mmHg 77%
08:00 +26°C° 0 mm 3 mps 714 mmHg 68%
09:00 +29°C° 0 mm 3 mps 715 mmHg 59%
10:00 +30°C° 0 mm 3 mps 715 mmHg 53%
11:00 +32°C° 0 mm 2 mps 715 mmHg 46%
12:00 +34°C° 0 mm 2 mps 715 mmHg 40%
13:00 +34°C° 0 mm 1 mps 714 mmHg 38%
14:00 +34°C° 0 mm 1 mps 713 mmHg 36%
15:00 +35°C° 0 mm 1 mps 713 mmHg 33%
16:00 +33°C° 0 mm 1 mps 713 mmHg 39%
17:00 +32°C° 0 mm 1 mps 712 mmHg 44%
18:00 +30°C° 0 mm 2 mps 712 mmHg 49%
19:00 +29°C° 0 mm 2 mps 713 mmHg 50%
20:00 +28°C° 0 mm 1 mps 713 mmHg 51%
21:00 +28°C° 0 mm 1 mps 714 mmHg 52%
22:00 +27°C° 0.1 mm 2 mps 714 mmHg 56%
23:00 +26°C° 0.1 mm 2 mps 714 mmHg 60%

28 November, Saturday

Time Temperature Precipitation Wind Pressure Humidity
00:00 +25°C° 0.1 mm 2 mps 714 mmHg 64%
01:00 +25°C° 0 mm 2 mps 713 mmHg 67%
02:00 +24°C° 0 mm 2 mps 713 mmHg 70%
03:00 +23°C° 0 mm 2 mps 712 mmHg 73%
04:00 +23°C° 0 mm 2 mps 713 mmHg 74%
05:00 +23°C° 0 mm 2 mps 713 mmHg 75%
06:00 +21°C° 0 mm 2 mps 713 mmHg 76%
07:00 +25°C° 0 mm 3 mps 714 mmHg 69%
08:00 +27°C° 0 mm 3 mps 714 mmHg 62%
09:00 +29°C° 0 mm 4 mps 715 mmHg 54%
10:00 +32°C° 0 mm 4 mps 715 mmHg 49%
11:00 +33°C° 0 mm 4 mps 715 mmHg 44%
12:00 +35°C° 0 mm 4 mps 715 mmHg 39%
13:00 +35°C° 0 mm 3 mps 714 mmHg 40%
14:00 +35°C° 0 mm 3 mps 713 mmHg 40%
15:00 +35°C° 0 mm 3 mps 713 mmHg 41%
16:00 +32°C° 0 mm 2 mps 713 mmHg 45%
17:00 +31°C° 0 mm 2 mps 712 mmHg 49%
18:00 +30°C° 0 mm 1 mps 712 mmHg 53%
19:00 +29°C° 0.6 mm 1 mps 712 mmHg 59%
20:00 +27°C° 0.6 mm 2 mps 713 mmHg 65%
21:00 +26°C° 0.6 mm 2 mps 713 mmHg 71%
22:00 +25°C° 0.5 mm 2 mps 713 mmHg 75%
23:00 +24°C° 0.5 mm 2 mps 714 mmHg 79%

29 November, Sunday

Time Temperature Precipitation Wind Pressure Humidity
00:00 +23°C° 0.5 mm 2 mps 714 mmHg 83%
01:00 +23°C° 0 mm 2 mps 713 mmHg 84%
02:00 +23°C° 0 mm 2 mps 713 mmHg 84%
03:00 +22°C° 0 mm 3 mps 713 mmHg 85%
04:00 +22°C° 0 mm 3 mps 713 mmHg 84%
05:00 +21°C° 0 mm 3 mps 713 mmHg 83%
06:00 +21°C° 0 mm 3 mps 714 mmHg 82%
07:00 +24°C° 0 mm 3 mps 714 mmHg 74%
08:00 +26°C° 0 mm 4 mps 715 mmHg 66%
09:00 +29°C° 0 mm 4 mps 716 mmHg 58%
10:00 +30°C° 0 mm 4 mps 715 mmHg 53%
11:00 +33°C° 0 mm 4 mps 715 mmHg 48%
12:00 +34°C° 0 mm 4 mps 715 mmHg 42%
13:00 +35°C° 0 mm 3 mps 714 mmHg 41%
14:00 +35°C° 0 mm 3 mps 714 mmHg 41%
15:00 +35°C° 0 mm 3 mps 713 mmHg 40%
16:00 +34°C° 0 mm 2 mps 713 mmHg 45%
17:00 +32°C° 0 mm 2 mps 713 mmHg 50%
18:00 +30°C° 0 mm 1 mps 713 mmHg 55%
19:00 +30°C° 0 mm 1 mps 713 mmHg 56%
20:00 +29°C° 0 mm 1 mps 713 mmHg 57%
21:00 +28°C° 0 mm 1 mps 713 mmHg 57%
22:00 +27°C° 0 mm 2 mps 713 mmHg 62%
23:00 +26°C° 0 mm 2 mps 713 mmHg 66%
Show more

We Need Your Consent

Meteoprog and our Service Providers may store and access personal data such as cookies, device identifiers or other similar technologies on your device and process such data to personalise content and ads, as well as provide social media features and to analyse the traffic.

  • Store and/or access information on your device

    Cookies, device identifiers or other information can be stored or accessed on your device for the purposes indicated above.

  • Personalised ads and content, ad and content measurement, audience insights, and products development

    Ads and content can be personalised based on a profile. More data can be added to better personalise ads and content. Ad and content performance can be measured. Insights about the audience who saw the ads and content can be derived. Such data can be used to develop or improve user’s experience, systems and software.

By clicking ‘I Agree’ you will allow the use of indicated cookies, device identifiers, web beacons or other similar technologies. Your settings can be changed in the browser on your device.

For certain purposes, legitimate interests may be relied on, rather than consent. You can read more about this in our Privacy and Cookie Policy.